Location: Wangen/Allg�u
(47.6873°N, 9.8307°E)
Time: 11:47:32
(UTC+01:00)

ISS - Pass Details

Date: 02 December 2021
Orbit: 413 x 422 km, 51.6° (Epoch: 27 January)

Event Time Altitude Azimuth Distance (km) Brightness Sun altitude
Rises 19:19:32 0° 293° (WNW) 2,386 1.0 -27.6°
Reaches altitude 10° 19:21:40 10° 289° (WNW) 1,516 -0.1 -28.0°
Enters shadow 19:22:54 20° 282° (WNW) 1,039 -1.1 -28.2°
